When you browse on this site, cookies collect data to enhance your experience and personalize the content and advertising you see.
Visit our Privacy Policy to learn more. By continuing to use the site, you agree to this use of cookies and data.
  • In United Kingdom
  • List of Countries
  • For 7 days
  • Water Temperature
  • Satellite Maps
  • Weather Map
  • Weather Widgets
  • user-avatar
    Login

    Hourly Weather Mazyr

    Today, 23 May, Thursday

    Time Temperature Precipitation Wind Pressure Humidity
    00:00 +15°C° 0 mm 1 mps 742 mmHg 76%
    01:00 +15°C° 0 mm 1 mps 741 mmHg 78%
    02:00 +14°C° 0 mm 1 mps 741 mmHg 80%
    03:00 +13°C° 0 mm 0 mps 741 mmHg 80%
    04:00 +14°C° 0 mm 0 mps 741 mmHg 80%
    05:00 +14°C° 0 mm 0 mps 741 mmHg 80%
    06:00 +16°C° 0 mm 0 mps 741 mmHg 74%
    07:00 +18°C° 0 mm 0 mps 742 mmHg 68%
    08:00 +20°C° 0 mm 0 mps 742 mmHg 62%
    09:00 +23°C° 0 mm 1 mps 742 mmHg 57%
    10:00 +25°C° 0 mm 1 mps 742 mmHg 52%
    11:00 +26°C° 0 mm 1 mps 741 mmHg 46%
    12:00 +26°C° 0 mm 1 mps 741 mmHg 47%
    13:00 +26°C° 0 mm 1 mps 741 mmHg 47%
    14:00 +26°C° 0 mm 1 mps 741 mmHg 48%
    15:00 +26°C° 0 mm 1 mps 741 mmHg 48%
    16:00 +26°C° 0 mm 1 mps 741 mmHg 49%
    17:00 +26°C° 0 mm 1 mps 741 mmHg 49%
    18:00 +24°C° 0 mm 1 mps 741 mmHg 54%
    19:00 +22°C° 0 mm 1 mps 741 mmHg 59%
    20:00 +20°C° 0 mm 1 mps 741 mmHg 64%
    21:00 +20°C° 0 mm 1 mps 741 mmHg 66%
    22:00 +19°C° 0 mm 1 mps 742 mmHg 68%
    23:00 +18°C° 0 mm 1 mps 742 mmHg 70%

    Tomorrow, 24 May, Friday

    Time Temperature Precipitation Wind Pressure Humidity
    00:00 +18°C° 0 mm 1 mps 742 mmHg 73%
    01:00 +16°C° 0 mm 1 mps 742 mmHg 76%
    02:00 +15°C° 0 mm 0 mps 742 mmHg 79%
    03:00 +15°C° 0 mm 0 mps 742 mmHg 80%
    04:00 +15°C° 0 mm 0 mps 742 mmHg 81%
    05:00 +15°C° 0 mm 0 mps 742 mmHg 82%
    06:00 +17°C° 0 mm 0 mps 742 mmHg 76%
    07:00 +21°C° 0 mm 1 mps 742 mmHg 69%
    08:00 +23°C° 0 mm 1 mps 742 mmHg 63%
    09:00 +24°C° 0.5 mm 1 mps 742 mmHg 58%
    10:00 +26°C° 0.5 mm 1 mps 742 mmHg 54%
    11:00 +25°C° 0.5 mm 0 mps 742 mmHg 49%
    12:00 +25°C° 0 mm 0 mps 742 mmHg 48%
    13:00 +25°C° 0 mm 0 mps 742 mmHg 46%
    14:00 +25°C° 0 mm 0 mps 742 mmHg 44%
    15:00 +25°C° 0 mm 0 mps 741 mmHg 47%
    16:00 +25°C° 0 mm 0 mps 741 mmHg 50%
    17:00 +24°C° 0 mm 0 mps 741 mmHg 52%
    18:00 +24°C° 0 mm 1 mps 741 mmHg 58%
    19:00 +23°C° 0 mm 1 mps 741 mmHg 64%
    20:00 +21°C° 0 mm 1 mps 741 mmHg 70%
    21:00 +20°C° 1 mm 1 mps 741 mmHg 77%
    22:00 +19°C° 1 mm 1 mps 741 mmHg 83%
    23:00 +18°C° 1 mm 1 mps 741 mmHg 89%

    Day after tomorrow, 25 May, Saturday

    Time Temperature Precipitation Wind Pressure Humidity
    00:00 +18°C° 0.2 mm 1 mps 740 mmHg 89%
    01:00 +16°C° 0.2 mm 1 mps 740 mmHg 90%
    02:00 +16°C° 0.2 mm 1 mps 740 mmHg 90%
    03:00 +16°C° 0 mm 1 mps 740 mmHg 90%
    04:00 +16°C° 0 mm 1 mps 740 mmHg 91%
    05:00 +16°C° 0 mm 1 mps 740 mmHg 91%
    06:00 +19°C° 0.7 mm 1 mps 740 mmHg 87%
    07:00 +20°C° 0.7 mm 1 mps 740 mmHg 83%
    08:00 +21°C° 0.7 mm 1 mps 740 mmHg 78%
    09:00 +22°C° 0.9 mm 1 mps 740 mmHg 73%
    10:00 +23°C° 0.9 mm 2 mps 740 mmHg 68%
    11:00 +24°C° 0.9 mm 2 mps 740 mmHg 62%
    12:00 +24°C° 0.1 mm 3 mps 740 mmHg 61%
    13:00 +25°C° 0.1 mm 3 mps 740 mmHg 60%
    14:00 +25°C° 0.1 mm 4 mps 740 mmHg 59%
    15:00 +25°C° 0.8 mm 3 mps 740 mmHg 64%
    16:00 +24°C° 0.8 mm 3 mps 739 mmHg 68%
    17:00 +22°C° 0.8 mm 3 mps 739 mmHg 73%
    18:00 +21°C° 0.1 mm 3 mps 739 mmHg 76%
    19:00 +19°C° 0.1 mm 3 mps 740 mmHg 79%
    20:00 +18°C° 0.1 mm 3 mps 740 mmHg 82%
    21:00 +17°C° 0 mm 3 mps 740 mmHg 82%
    22:00 +16°C° 0 mm 3 mps 740 mmHg 82%
    23:00 +14°C° 0 mm 3 mps 740 mmHg 82%

    26 May, Sunday

    Time Temperature Precipitation Wind Pressure Humidity
    00:00 +13°C° 0 mm 3 mps 740 mmHg 84%
    01:00 +13°C° 0 mm 3 mps 741 mmHg 87%
    02:00 +13°C° 0 mm 2 mps 741 mmHg 90%
    03:00 +13°C° 0 mm 2 mps 741 mmHg 91%
    04:00 +13°C° 0 mm 2 mps 741 mmHg 92%
    05:00 +13°C° 0 mm 2 mps 742 mmHg 93%
    06:00 +14°C° 0 mm 2 mps 742 mmHg 87%
    07:00 +16°C° 0 mm 2 mps 742 mmHg 81%
    08:00 +17°C° 0 mm 2 mps 742 mmHg 75%
    09:00 +18°C° 0.1 mm 3 mps 742 mmHg 69%
    10:00 +19°C° 0.1 mm 3 mps 742 mmHg 63%
    11:00 +20°C° 0.1 mm 3 mps 742 mmHg 57%
    12:00 +21°C° 0 mm 4 mps 742 mmHg 54%
    13:00 +22°C° 0 mm 4 mps 742 mmHg 52%
    14:00 +22°C° 0 mm 4 mps 741 mmHg 49%
    15:00 +22°C° 0 mm 4 mps 741 mmHg 50%
    16:00 +22°C° 0 mm 4 mps 741 mmHg 51%
    17:00 +22°C° 0 mm 4 mps 741 mmHg 52%
    18:00 +20°C° 0 mm 3 mps 741 mmHg 58%
    19:00 +18°C° 0 mm 3 mps 741 mmHg 64%
    20:00 +17°C° 0 mm 2 mps 741 mmHg 71%
    21:00 +16°C° 0 mm 2 mps 741 mmHg 75%
    22:00 +16°C° 0 mm 3 mps 741 mmHg 78%
    23:00 +14°C° 0 mm 3 mps 741 mmHg 82%

    27 May, Monday

    Time Temperature Precipitation Wind Pressure Humidity
    00:00 +13°C° 0 mm 3 mps 742 mmHg 87%
    01:00 +14°C° 0 mm 2 mps 742 mmHg 91%
    02:00 +13°C° 0 mm 2 mps 742 mmHg 95%
    03:00 +13°C° 0 mm 2 mps 742 mmHg 94%
    04:00 +12°C° 0 mm 2 mps 743 mmHg 93%
    05:00 +11°C° 0 mm 3 mps 743 mmHg 91%
    06:00 +13°C° 0 mm 3 mps 743 mmHg 83%
    07:00 +14°C° 0 mm 4 mps 744 mmHg 74%
    08:00 +15°C° 0 mm 4 mps 744 mmHg 66%
    09:00 +18°C° 0 mm 4 mps 744 mmHg 62%
    10:00 +19°C° 0 mm 4 mps 744 mmHg 57%
    11:00 +20°C° 0 mm 4 mps 744 mmHg 53%
    12:00 +21°C° 0 mm 4 mps 744 mmHg 52%
    13:00 +22°C° 0 mm 4 mps 744 mmHg 50%
    14:00 +22°C° 0 mm 4 mps 744 mmHg 48%
    15:00 +24°C° 0 mm 3 mps 744 mmHg 49%
    16:00 +24°C° 0 mm 2 mps 744 mmHg 50%
    17:00 +24°C° 0 mm 2 mps 744 mmHg 50%
    18:00 +21°C° 0 mm 2 mps 744 mmHg 57%
    19:00 +20°C° 0 mm 1 mps 744 mmHg 63%
    20:00 +19°C° 0 mm 1 mps 744 mmHg 69%
    21:00 +18°C° 0 mm 1 mps 744 mmHg 71%
    22:00 +17°C° 0 mm 2 mps 744 mmHg 74%
    23:00 +16°C° 0 mm 2 mps 744 mmHg 76%

    28 May, Tuesday

    Time Temperature Precipitation Wind Pressure Humidity
    00:00 +16°C° 0 mm 2 mps 744 mmHg 76%
    01:00 +16°C° 0 mm 3 mps 744 mmHg 75%
    02:00 +17°C° 0 mm 3 mps 743 mmHg 74%
    03:00 +17°C° 0.5 mm 3 mps 743 mmHg 81%
    04:00 +17°C° 0.5 mm 4 mps 743 mmHg 87%
    05:00 +17°C° 0.5 mm 4 mps 742 mmHg 94%
    06:00 +17°C° 2.4 mm 4 mps 742 mmHg 93%
    07:00 +16°C° 2.4 mm 5 mps 742 mmHg 93%
    08:00 +17°C° 2.4 mm 5 mps 742 mmHg 92%
    09:00 +20°C° 0 mm 6 mps 741 mmHg 81%
    10:00 +22°C° 0 mm 6 mps 741 mmHg 70%
    11:00 +24°C° 0 mm 7 mps 741 mmHg 59%
    12:00 +26°C° 0 mm 7 mps 741 mmHg 58%
    13:00 +26°C° 0 mm 7 mps 740 mmHg 57%
    14:00 +27°C° 0 mm 7 mps 740 mmHg 57%
    15:00 +26°C° 0.4 mm 7 mps 740 mmHg 62%
    16:00 +26°C° 0.4 mm 6 mps 740 mmHg 67%
    17:00 +24°C° 0.4 mm 6 mps 740 mmHg 72%
    18:00 +23°C° 1 mm 5 mps 740 mmHg 76%
    19:00 +22°C° 1 mm 5 mps 740 mmHg 81%
    20:00 +20°C° 1 mm 5 mps 740 mmHg 85%
    21:00 +20°C° 0 mm 4 mps 740 mmHg 87%
    22:00 +19°C° 0 mm 4 mps 740 mmHg 88%
    23:00 +19°C° 0 mm 4 mps 740 mmHg 90%
    Show more